#timestamp,LO_Frequency,Hit 
1504717215.5,286046995.9,N
1504717235.4,286046995.0,N
1504717255.2,286046995.1,N
1504717275.0,286046995.2,N
1504717275.9,286046995.2,N
1504717295.8,286046998.1,N
1504717315.6,286046998.7,N
1504717335.4,286046999.8,N
1504717355.2,286046999.2,N
1504717375.1,286046995.1,N
1504717376.0,286046995.1,N
1504717395.8,286046998.7,N
1504717415.6,286046998.1,N
1504717435.5,286047000.6,N
1504717455.3,286047002.6,N
1504717475.1,286047000.9,N
1504717495.9,286046999.0,N
1504717515.7,286046998.0,N
1504717535.5,286046999.5,N
1504717555.4,286046994.0,N
1504717575.2,286046996.9,N
1504717595.0,286046996.9,N
1504717595.9,286046996.9,N
1504717615.8,286046998.6,N
1504717635.6,286047006.3,N
1504717655.4,286047008.7,N
1504717675.3,286047010.3,P
1504717695.1,286047014.7,N
1504717696.0,286047014.7,N
1504717715.8,286047017.4,N
1504717735.7,286047017.3,N
1504717755.5,286047020.2,P
1504717775.3,286047006.1,N
1504717795.2,286047012.2,N
1504717815.9,286047007.9,N
1504717835.7,286047011.5,N
1504717855.6,286047009.0,N
1504717875.4,286047008.1,N
1504717895.2,286047009.9,N
1504717915.1,286047012.3,P
1504717916.0,286047012.3,P
1504717935.8,286046996.5,P
1504717955.6,286046993.8,N
1504717975.5,286046994.2,N
1504717995.3,286046996.2,N
1504718015.1,286047004.4,N
1504718035.9,286047002.3,N
1504718055.7,286047000.9,N
1504718075.5,286047002.4,N
1504718095.4,286047002.8,N
1504718115.2,286046999.9,N
1504718135.0,286046999.1,N
1504718135.9,286046999.1,N
1504718155.8,286046999.0,N
1504718175.6,286046998.3,N
1504718195.4,286046997.9,N
1504718215.2,286046993.7,N
1504718235.1,286046999.1,N
1504718236.0,286046999.1,N
1504718255.8,286046996.9,N
1504718275.6,286046997.2,N
1504718295.5,286046999.9,N
1504718315.3,286046999.0,N
1504718335.1,286046997.0,N
1504718355.9,286046998.6,N
1504718375.7,286046997.4,N
1504718395.5,286046997.2,N
1504718415.4,286046996.3,N
1504718435.2,286046993.3,N
1504718455.0,286046999.6,N
1504718455.9,286046999.6,N
1504718475.8,286046995.7,N
1504718495.6,286046994.0,N
1504718515.4,286046992.0,P
1504718535.3,286046994.5,N
1504718555.1,286046996.4,N
1504718575.8,286046991.9,P
1504718595.7,286046996.2,N
1504718615.5,286046999.7,N
1504718635.3,286047001.4,N
1504718655.2,286047005.6,N
1504718675.9,286047003.2,N
1504718695.7,286047001.7,N
1504718715.6,286047005.2,N
1504718735.4,286047002.6,N
1504718755.2,286047000.7,N
1504718775.1,286046997.0,N
1504718776.0,286046997.0,N
1504718795.8,286046998.3,N
1504718815.6,286046996.5,N
1504718835.4,286046996.2,N
1504718855.3,286046993.0,N
1504718875.1,286046989.6,N
1504718895.8,286046992.1,N
1504718915.7,286046992.9,N
1504718935.5,286046988.8,N
1504718955.3,286046991.3,N
1504718975.2,286046995.3,N
1504718995.9,286047002.3,N
1504719015.7,286047005.2,N
1504719035.6,286047005.0,N
1504719055.4,286047006.3,N
1504719075.2,286047009.8,N
1504719095.1,286047006.8,N
1504719096.0,286047006.8,N
1504719115.8,286047010.3,N
1504719135.6,286047011.5,N
1504719155.5,286047013.8,N
1504719175.3,286047006.2,N
1504719195.1,286047005.6,N
1504719215.8,286047002.3,N
1504719235.7,286046999.7,N
1504719255.5,286047002.7,N
1504719275.3,286047001.0,N
1504719295.2,286046995.8,N
1504719315.9,286046992.4,N
1504719335.7,286046987.3,N
1504719355.6,286046991.5,N
1504719375.4,286046989.7,N
1504719395.2,286046993.2,N
1504719415.1,286046989.9,N
1504719416.0,286046989.9,N
1504719435.8,286046987.2,N
1504719455.6,286046987.2,N
1504719475.5,286046985.8,N
1504719495.3,286046985.9,N
1504719515.1,286046984.7,N
1504719535.8,286046982.1,N
1504719555.7,286046981.8,N
1504719575.5,286046982.6,N
1504719595.3,286046981.5,N
1504719615.2,286046982.5,N
1504719635.0,286046984.9,N
1504719635.9,286046984.9,N
1504719655.7,286046987.0,N
1504719675.6,286046989.6,N
1504719695.4,286046988.6,N
1504719715.2,286046993.0,N
1504719735.1,286046992.1,N
1504719736.0,286046992.1,N
1504719755.8,286046995.6,N
1504719775.6,286046997.4,N
1504719795.5,286046997.2,N
1504719815.3,286046997.1,N
1504719835.1,286047004.4,N
1504719855.9,286046999.7,N
1504719875.7,286047001.5,N
1504719895.5,286047003.3,N
1504719915.4,286047003.7,N
1504719935.2,286047002.8,N
1504719955.0,286047005.9,N
1504719955.9,286047005.9,N
1504719975.7,286047003.8,N
1504719995.6,286047002.7,N
1504720015.4,286047002.0,N
1504720035.2,286047007.2,N
1504720055.1,286047005.7,N
1504720056.0,286047005.7,N
1504720075.8,286047000.1,N
1504720095.6,286047001.8,N
1504720115.5,286047004.2,N
1504720135.3,286047003.9,N
1504720155.1,286047002.0,N
1504720175.9,286047001.5,N
1504720195.7,286047003.8,N
1504720215.5,286047002.3,N
1504720235.4,286047002.7,N
1504720255.2,286046999.6,N
1504720275.0,286047000.8,N
1504720275.9,286047000.8,N
1504720295.8,286046998.8,N
1504720315.6,286047000.4,N
1504720335.4,286046999.8,N
1504720355.3,286047007.6,P
1504720375.1,286047005.2,N
1504720376.0,286047005.2,N
1504720395.8,286047005.5,P
1504720415.7,286046999.3,P
1504720435.5,286046998.9,N
1504720455.3,286047000.0,N
1504720475.2,286046998.8,N
1504720495.9,286046996.6,N
1504720515.7,286046999.5,N
1504720535.6,286047002.4,N
1504720555.4,286046998.1,N
1504720575.2,286046999.9,N
1504720595.0,286047000.5,N
1504720596.0,286047000.5,N
1504720615.8,286047000.8,N
1504720635.6,286046999.8,N
1504720655.4,286047002.2,N
1504720675.3,286047005.8,N
1504720695.1,286047005.7,N
1504720715.8,286047004.0,N
1504720735.7,286047004.9,N
1504720755.5,286047003.3,N
1504720775.3,286047000.1,N
1504720795.2,286047000.9,N
